This is the latest recevied weather packets stored in our database for station/object EA3BNF-1. If no packets are shown the sender has not sent any weather packets the latest 10 day(s).
| Time | Temp. | Humidity | Pressure | Rain* | Wind** | Luminosity | Snow |
|---|---|---|---|---|---|---|---|
| 1778141890 | 20.56° C | 63% | 1013.9 hPa | - | - | - | - |
| 1778141234 | 20° C | 64% | 1013.8 hPa | - | - | - | - |
| 1778140579 | 19.44° C | 64% | 1013.9 hPa | - | - | - | - |
| 1778139923 | 19.44° C | 65% | 1014 hPa | - | - | - | - |
| 1778139268 | 19.44° C | 65% | 1014.1 hPa | - | - | - | - |
| 1778138612 | 18.89° C | 65% | 1014.1 hPa | - | - | - | - |
| 1778137956 | 19.44° C | 64% | 1014.1 hPa | - | - | - | - |
| 1778137301 | 18.89° C | 64% | 1014.1 hPa | - | - | - | - |
| 1778136645 | 17.78° C | 66% | 1014.1 hPa | - | - | - | - |
| 1778135990 | 16.11° C | 68% | 1014.1 hPa | - | - | - | - |
| 1778135334 | 16.11° C | 67% | 1014 hPa | - | - | - | - |
| 1778134678 | 15.56° C | 67% | 1013.9 hPa | - | - | - | - |
| 1778134022 | 15° C | 69% | 1013.7 hPa | - | - | - | - |
| 1778133367 | 13.89° C | 70% | 1013.6 hPa | - | - | - | - |
| 1778132711 | 13.89° C | 71% | 1013.5 hPa | - | - | - | - |
| 1778132055 | 13.89° C | 71% | 1013.4 hPa | - | - | - | - |
| 1778131400 | 13.33° C | 71% | 1013.4 hPa | - | - | - | - |
| 1778130744 | 13.33° C | 71% | 1013.4 hPa | - | - | - | - |
| 1778130088 | 13.33° C | 71% | 1013.3 hPa | - | - | - | - |
| 1778129433 | 13.33° C | 71% | 1013.2 hPa | - | - | - | - |
| 1778128777 | 13.33° C | 71% | 1013.2 hPa | - | - | - | - |
| 1778128121 | 13.89° C | 72% | 1013.3 hPa | - | - | - | - |
| 1778127466 | 13.89° C | 72% | 1013.2 hPa | - | - | - | - |
| 1778126811 | 13.89° C | 71% | 1013.2 hPa | - | - | - | - |
| 1778126151 | 14.44° C | 70% | 1013.3 hPa | - | - | - | - |
* Rain since midnight (hover to see other rain measurements)
** Current wind speed in m/s (hover to see current wind gust speed)